Regional Weather Roundup
Issued by NWS Albany, NY

Home | Current Version | Previous Version | Graphics & Text | Print | Product List | Glossary Off
Versions: 1 2 3 4 5 6 7 8 9 10 11 12 13 14 15 16 17 18 19 20 21 22 23 24 25 26 27 28 29 30 31 32 33 34 35 36 37 38 39 40 41 42 43 44 45 46 47 48 49 50

000
ASUS41 KALY 060910
RWRALY

NEW YORK STATE HOURLY WEATHER ROUNDUP
NATIONAL WEATHER SERVICE ALBANY NY
500 AM EDT FRI MAY 06 2016

NOTE: "FAIR" INDICATES FEW OR NO CLOUDS BELOW 12,000 FEET WITH NO
SIGNIFICANT WEATHER AND/OR NO OBSTRUCTIONS TO VISIBILITY.

NYZ032-033-038>043-046>054-057>066-NYZ062>081-082-084-061000-
EAST


CITY           SKY/WX    TMP DP  RH WIND       PRES   REMARKS
ALBANY         MOCLDY    51  42  71 N5        29.73R
GLENS FALLS    CLEAR     48  39  71 N7        29.74R
POUGHKEEPSIE   LGT RAIN  53  45  74 E6        29.70R
NEWBURGH       CLOUDY    52  46  82 E6        29.70S
MONTGOMERY     LGT RAIN  52  46  80 NE5       29.68F
WHITE PLAINS   LGT RAIN  47  45  93 N7        29.66F
ISLIP          LGT RAIN  47  44  90 NE14      29.66R
NEW YORK CITY  CLOUDY    50  48  93 NE10      29.66S
CENTRAL PARK   CLOUDY    48  45  89 NE7       29.69S
$$

NYZ005>009-017-018-044>046-055-056-061000-
CENTRAL


CITY           SKY/WX    TMP DP  RH WIND       PRES   REMARKS
FULTON         CLOUDY    51  42  71 N8        29.80R
SYRACUSE       MOCLDY    46  42  86 CALM      29.78R
ROME           CLOUDY    48  41  76 NW3       29.78R
ELMIRA         CLOUDY    50  41  71 NE9       29.75R
BINGHAMTON     CLOUDY    49  42  77 N7        29.73R
MONTICELLO     CLOUDY    48  45  87 CALM      29.70S
$$

NYZ026>034-041>043-087-061000-
NORTH


CITY           SKY/WX    TMP DP  RH WIND       PRES   REMARKS
WATERTOWN      PTCLDY    40  38  93 E5        29.81R
FORT DRUM      NOT AVBL
MASSENA        CLEAR     43  35  73 NE6       29.82S
SARANAC LAKE   CLEAR     30  27  88 CALM      29.77R
PLATTSBURGH    CLEAR     44  37  76 N9        29.78R
$$

NYZ001>004-010>016-019>021-085-061000-
WEST


CITY           SKY/WX    TMP DP  RH WIND       PRES   REMARKS
NIAGARA FALLS  CLEAR     43  38  82 N3        29.82S
BUFFALO        PTCLDY    45  40  82 CALM      29.83R
DUNKIRK        PTCLDY    42  40  92 CALM      29.83S
JAMESTOWN      CLOUDY    45  39  81 NW8       29.81S
WELLSVILLE     CLOUDY    45  39  79 N9        29.79S
ROCHESTER      PTCLDY    47  42  83 N7        29.82R
PENN YAN       CLOUDY    49  41  74 NW8G17    29.79R
$$

             KEY
       WCI = WIND CHILL INDEX
       VSB = VISIBILITY
       HX  = HEAT INDEX
$$



USA.gov is the U.S. government's official web portal to all federal, state and local government web resources and services.